contact:dominique.lefevre@mio.osupytheas.fr, maurice.libes@osupytheas.fr, didier.mallarino@osupytheas.fr
Project:EMSO http://www.emso-fr.org/EMSO-France
Depth: 2436.0 m
Title:EMSO Ligure Ouest : Data MII capteur AQUADOPP
Date,Latitude,Longitude,X_East,Y_North,Z_Up,Amplitude_X,Amplitude_Y,Amplitude_Z,Batterie,SoundSpeed,Heading,Pitch,Roll,Pressure,TIS,Speed,Direction
, degrees North, degrees East, m.s-1, m.s-1,m.s-1, 1, 1, 1, Volt, m.s-1, degree, degree, degree, dbar, degree_C, m.s-1, degree
2023-07-01T00:04:03,42.805,6.029,0.024,0.008,-0.02,102.0,109.0,101.0,13.4,1505.2,349.5,-0.8,1.8,2471.457,13.28,0.025,71.6
2023-07-01T00:07:03,42.805,6.029,-0.035,0.037,-0.037,103.0,108.0,101.0,13.4,1505.2,333.4,-0.8,1.8,2471.422,13.28,0.05,316.6
2023-07-01T00:10:03,42.805,6.029,0.033,0.021,0.003,103.0,107.0,101.0,13.4,1505.2,330.6,-0.8,1.8,2471.437,13.28,0.039,57.5
2023-07-01T00:13:03,42.805,6.029,0.074,0.0,-0.01,103.0,106.0,101.0,13.3,1505.2,321.9,-0.8,1.8,2471.398,13.29,0.073,90.0
2023-07-01T00:16:03,42.805,6.029,0.034,0.005,-0.018,103.0,106.0,101.0,13.4,1505.2,341.5,-0.8,1.8,2471.44,13.29,0.034,81.6
2023-07-01T00:19:03,42.805,6.029,0.01,-0.011,-0.019,103.0,107.0,101.0,13.3,1505.2,344.2,-0.8,1.8,2471.421,13.29,0.014,137.7
2023-07-01T00:22:03,42.805,6.029,0.035,0.0,-0.012,102.0,107.0,101.0,13.4,1505.2,351.7,-0.8,1.8,2471.413,13.29,0.035,90.0
2023-07-01T00:25:03,42.805,6.029,-0.003,0.023,-0.032,102.0,108.0,100.0,13.3,1505.2,338.8,-0.8,1.8,2471.403,13.29,0.023,352.6
2023-07-01T00:28:03,42.805,6.029,0.042,0.022,-0.007,103.0,107.0,101.0,13.3,1505.2,331.2,-0.8,1.8,2471.409,13.29,0.047,62.4
2023-07-01T00:31:03,42.805,6.029,0.04,0.0,0.036,101.0,107.0,101.0,13.4,1505.2,341.2,-0.8,1.8,2471.397,13.29,0.04,90.0
2023-07-01T00:34:03,42.805,6.029,0.047,0.002,-0.006,103.0,107.0,102.0,13.4,1505.2,327.7,-0.7,1.8,2471.413,13.29,0.047,87.6
2023-07-01T00:37:03,42.805,6.029,0.064,-0.002,0.001,101.0,106.0,102.0,13.3,1505.2,337.1,-0.8,1.8,2471.371,13.29,0.064,91.8
2023-07-01T00:40:03,42.805,6.029,0.045,0.011,-0.001,102.0,107.0,101.0,13.3,1505.2,329.9,-0.8,1.8,2471.425,13.29,0.046,76.3
2023-07-01T00:43:03,42.805,6.029,0.041,0.009,-0.005,102.0,107.0,101.0,13.4,1505.2,333.4,-0.7,1.8,2471.394,13.29,0.041,77.6
2023-07-01T00:46:03,42.805,6.029,0.051,0.003,-0.006,103.0,108.0,101.0,13.4,1505.2,325.0,-0.8,1.8,2471.4,13.29,0.051,86.6
2023-07-01T00:49:03,42.805,6.029,0.036,0.021,-0.021,102.0,105.0,101.0,13.3,1505.2,321.9,-0.7,1.8,2471.401,13.29,0.041,59.7
2023-07-01T00:52:03,42.805,6.029,0.037,-0.013,-0.004,103.0,103.0,102.0,13.3,1505.2,332.1,-0.8,1.8,2471.423,13.29,0.039,109.4
2023-07-01T00:55:03,42.805,6.029,0.071,-0.003,-0.007,103.0,105.0,102.0,13.4,1505.2,341.2,-0.8,1.8,2471.401,13.29,0.071,92.4
2023-07-01T00:58:03,42.805,6.029,0.062,0.006,0.015,104.0,104.0,101.0,13.4,1505.2,330.1,-0.8,1.8,2471.37,13.29,0.062,84.5
2023-07-01T01:01:03,42.805,6.029,0.046,-0.004,-0.022,103.0,104.0,101.0,13.4,1505.2,345.9,-0.8,1.8,2471.411,13.29,0.046,95.0
2023-07-01T01:04:03,42.805,6.029,0.059,0.013,0.013,104.0,105.0,102.0,13.4,1505.2,331.3,-0.8,1.8,2471.388,13.29,0.06,77.6
2023-07-01T01:07:03,42.805,6.029,0.036,0.005,-0.028,102.0,104.0,101.0,13.3,1505.2,327.1,-0.8,1.8,2471.371,13.29,0.036,82.1
2023-07-01T01:10:03,42.805,6.029,0.05,0.007,-0.038,104.0,104.0,101.0,13.4,1505.2,323.8,-0.8,1.8,2471.392,13.29,0.05,82.0
2023-07-01T01:13:03,42.805,6.029,0.049,-0.032,-0.018,104.0,104.0,102.0,13.3,1505.2,334.7,-0.8,1.8,2471.378,13.29,0.058,123.2
2023-07-01T01:16:03,42.805,6.029,0.042,-0.015,-0.003,102.0,104.0,102.0,13.4,1505.2,348.9,-0.7,1.8,2471.406,13.29,0.044,109.6
2023-07-01T01:19:03,42.805,6.029,0.053,-0.009,-0.01,103.0,104.0,101.0,13.3,1505.2,319.7,-0.8,1.8,2471.432,13.29,0.053,99.6
2023-07-01T01:22:03,42.805,6.029,0.059,-0.009,0.005,103.0,104.0,101.0,13.4,1505.2,331.6,-0.8,1.8,2471.399,13.29,0.059,98.7
2023-07-01T01:25:03,42.805,6.029,0.035,-0.026,0.01,103.0,103.0,101.0,13.3,1505.2,345.3,-0.8,1.8,2471.373,13.29,0.043,126.6
2023-07-01T01:28:03,42.805,6.029,0.056,-0.034,0.008,102.0,103.0,102.0,13.4,1505.2,337.2,-0.8,1.8,2471.385,13.29,0.065,121.3
2023-07-01T01:31:03,42.805,6.029,0.046,-0.016,-0.004,103.0,104.0,102.0,13.4,1505.2,328.6,-0.8,1.8,2471.389,13.29,0.048,109.2
2023-07-01T01:34:03,42.805,6.029,0.033,-0.009,-0.028,103.0,103.0,103.0,13.3,1505.2,348.8,-0.7,1.8,2471.444,13.29,0.034,105.3
2023-07-01T01:37:03,42.805,6.029,0.062,0.004,0.012,104.0,103.0,102.0,13.4,1505.2,327.3,-0.8,1.8,2471.396,13.29,0.062,86.3
2023-07-01T01:40:03,42.805,6.029,0.031,-0.007,-0.018,103.0,104.0,102.0,13.4,1505.2,330.5,-0.8,1.8,2471.43,13.29,0.031,102.7
2023-07-01T01:43:03,42.805,6.029,0.078,-0.009,0.024,103.0,103.0,103.0,13.4,1505.2,331.0,-0.7,1.8,2471.392,13.29,0.078,96.6
2023-07-01T01:46:03,42.805,6.029,0.064,-0.014,0.01,104.0,103.0,101.0,13.3,1505.2,345.9,-0.7,1.8,2471.423,13.29,0.065,102.3
2023-07-01T01:49:03,42.805,6.029,0.054,-0.03,0.001,103.0,102.0,102.0,13.4,1505.2,340.0,-0.8,1.8,2471.419,13.29,0.061,119.1
2023-07-01T01:52:03,42.805,6.029,0.041,-0.025,0.0,102.0,103.0,101.0,13.4,1505.2,349.1,-0.8,1.8,2471.488,13.29,0.048,121.4
2023-07-01T01:55:03,42.805,6.029,0.074,-0.032,-0.016,103.0,103.0,101.0,13.3,1505.2,346.7,-0.8,1.8,2471.436,13.29,0.08,113.4
2023-07-01T01:58:03,42.805,6.029,0.079,0.019,0.016,103.0,102.0,101.0,13.4,1505.2,327.8,-0.8,1.8,2471.416,13.29,0.081,76.5
2023-07-01T02:04:03,42.805,6.029,0.052,0.003,-0.012,102.0,100.0,101.0,13.4,1505.2,330.2,-0.7,1.8,2471.488,13.28,0.052,86.7
2023-07-01T02:07:03,42.805,6.029,0.035,-0.028,-0.03,103.0,100.0,101.0,13.3,1505.2,345.9,-0.7,1.8,2471.436,13.28,0.044,128.7
2023-07-01T02:10:03,42.805,6.029,0.024,0.016,-0.001,104.0,102.0,101.0,13.4,1505.2,323.1,-0.8,1.8,2471.439,13.28,0.028,56.3
2023-07-01T02:13:03,42.805,6.029,0.065,-0.01,-0.018,101.0,103.0,101.0,13.4,1505.2,330.7,-0.8,1.8,2471.438,13.29,0.065,98.7
2023-07-01T02:16:03,42.805,6.029,0.06,-0.001,-0.019,103.0,102.0,101.0,13.3,1505.2,329.0,-0.8,1.8,2471.413,13.29,0.06,91.0
2023-07-01T02:19:03,42.805,6.029,0.066,0.017,0.005,103.0,103.0,100.0,13.4,1505.2,324.5,-0.7,1.8,2471.435,13.29,0.068,75.6
2023-07-01T02:22:03,42.805,6.029,0.066,0.002,0.034,103.0,103.0,101.0,13.3,1505.2,336.0,-0.8,1.8,2471.434,13.29,0.066,88.3
2023-07-01T02:25:03,42.805,6.029,0.021,-0.024,-0.022,102.0,103.0,101.0,13.4,1505.2,337.8,-0.8,1.8,2471.395,13.29,0.031,138.8
2023-07-01T02:28:03,42.805,6.029,0.066,-0.007,0.011,102.0,103.0,100.0,13.4,1505.2,334.8,-0.8,1.9,2471.43,13.29,0.066,96.1
2023-07-01T02:31:03,42.805,6.029,0.047,-0.026,-0.016,102.0,103.0,101.0,13.3,1505.2,350.9,-0.8,1.8,2471.458,13.29,0.053,118.9
2023-07-01T02:34:03,42.805,6.029,0.046,-0.014,0.009,101.0,103.0,101.0,13.4,1505.2,346.8,-0.7,1.8,2471.431,13.29,0.048,106.9
2023-07-01T02:37:03,42.805,6.029,0.042,-0.026,-0.019,102.0,102.0,101.0,13.4,1505.2,347.0,-0.8,1.8,2471.442,13.29,0.049,121.8
2023-07-01T02:40:03,42.805,6.029,0.015,-0.019,-0.045,103.0,104.0,101.0,13.4,1505.2,334.6,-0.8,1.8,2471.423,13.29,0.024,141.7
2023-07-01T02:43:03,42.805,6.029,0.068,-0.003,-0.022,103.0,104.0,101.0,13.4,1505.2,325.0,-0.8,1.9,2471.484,13.29,0.068,92.5
2023-07-01T02:46:03,42.805,6.029,0.065,-0.003,0.012,102.0,102.0,102.0,13.4,1505.2,332.4,-0.8,1.8,2471.462,13.29,0.065,92.6
2023-07-01T02:49:03,42.805,6.029,0.072,-0.05,0.005,102.0,103.0,101.0,13.4,1505.2,350.5,-0.8,1.8,2471.437,13.29,0.087,124.8
2023-07-01T02:52:03,42.805,6.029,0.038,-0.019,-0.014,103.0,104.0,101.0,13.4,1505.2,346.7,-0.8,1.8,2471.473,13.29,0.042,116.6
2023-07-01T02:55:03,42.805,6.029,0.047,0.016,-0.011,102.0,104.0,101.0,13.3,1505.2,322.3,-0.8,1.8,2471.425,13.29,0.049,71.2
2023-07-01T02:58:03,42.805,6.029,0.037,-0.014,-0.018,103.0,105.0,102.0,13.3,1505.2,331.6,-0.7,1.8,2471.428,13.29,0.039,110.7
2023-07-01T03:04:03,42.805,6.029,0.039,0.0,-0.015,102.0,103.0,101.0,13.4,1505.2,321.1,-0.8,1.8,2471.464,13.28,0.039,90.0
2023-07-01T03:07:03,42.805,6.029,0.035,0.006,0.019,103.0,104.0,101.0,13.3,1505.2,326.0,-0.8,1.8,2471.5,13.28,0.035,80.3
2023-07-01T03:10:03,42.805,6.029,0.063,0.006,0.005,102.0,104.0,101.0,13.4,1505.2,328.1,-0.8,1.8,2471.481,13.28,0.063,84.6
2023-07-01T03:13:03,42.805,6.029,0.04,0.004,-0.004,103.0,104.0,102.0,13.3,1505.2,342.3,-0.7,1.8,2471.474,13.28,0.04,84.3
2023-07-01T03:16:03,42.805,6.029,0.057,-0.002,-0.002,103.0,105.0,101.0,13.3,1505.2,334.8,-0.7,1.8,2471.461,13.29,0.057,92.0
2023-07-01T03:19:03,42.805,6.029,0.075,0.007,0.004,103.0,105.0,102.0,13.3,1505.2,322.9,-0.8,1.8,2471.459,13.29,0.075,84.7
2023-07-01T03:22:03,42.805,6.029,0.036,0.005,-0.006,103.0,104.0,101.0,13.4,1505.2,328.8,-0.7,1.8,2471.425,13.29,0.036,82.1
2023-07-01T03:25:03,42.805,6.029,0.042,-0.016,-0.018,102.0,104.0,102.0,13.3,1505.2,339.7,-0.8,1.8,2471.48,13.29,0.044,110.9
2023-07-01T03:28:03,42.805,6.029,0.076,0.009,0.027,103.0,105.0,101.0,13.3,1505.2,332.4,-0.8,1.8,2471.447,13.29,0.076,83.2
2023-07-01T03:31:03,42.805,6.029,0.056,-0.018,-0.028,101.0,107.0,101.0,13.4,1505.2,337.1,-0.8,1.8,2471.465,13.29,0.058,107.8
2023-07-01T03:34:03,42.805,6.029,0.049,-0.011,0.021,104.0,103.0,100.0,13.4,1505.2,339.7,-0.8,1.8,2471.484,13.29,0.05,102.7
2023-07-01T03:37:03,42.805,6.029,0.027,0.013,-0.021,102.0,104.0,101.0,13.4,1505.2,329.5,-0.7,1.8,2471.442,13.29,0.029,64.3
2023-07-01T03:40:03,42.805,6.029,0.057,0.019,0.022,102.0,106.0,101.0,13.4,1505.2,344.0,-0.8,1.8,2471.448,13.29,0.06,71.6
2023-07-01T03:43:03,42.805,6.029,0.03,-0.02,-0.006,102.0,105.0,101.0,13.4,1505.2,339.3,-0.8,1.8,2471.476,13.29,0.036,123.7
2023-07-01T03:46:03,42.805,6.029,0.067,-0.05,-0.015,102.0,106.0,102.0,13.4,1505.2,347.0,-0.8,1.8,2471.496,13.29,0.083,126.7
2023-07-01T03:49:03,42.805,6.029,0.06,-0.019,0.003,102.0,104.0,101.0,13.3,1505.2,338.7,-0.8,1.8,2471.432,13.29,0.062,107.6
2023-07-01T03:52:03,42.805,6.029,0.038,-0.001,-0.017,103.0,106.0,102.0,13.4,1505.2,322.5,-0.8,1.8,2471.455,13.29,0.038,91.5
2023-07-01T03:55:03,42.805,6.029,0.084,-0.001,0.005,102.0,105.0,102.0,13.4,1505.2,334.4,-0.8,1.8,2471.476,13.29,0.084,90.7
2023-07-01T03:58:03,42.805,6.029,0.049,-0.016,-0.007,102.0,104.0,101.0,13.4,1505.2,331.1,-0.8,1.8,2471.465,13.29,0.051,108.1
2023-07-01T04:04:03,42.805,6.029,0.061,-0.008,0.002,102.0,105.0,102.0,13.4,1505.2,344.4,-0.8,1.8,2471.501,13.28,0.061,97.5
2023-07-01T04:07:03,42.805,6.029,0.089,-0.042,0.018,102.0,104.0,101.0,13.3,1505.2,340.2,-0.8,1.8,2471.48,13.28,0.098,115.3
2023-07-01T04:10:03,42.805,6.029,0.053,-0.007,-0.019,103.0,103.0,101.0,13.3,1505.2,342.5,-0.8,1.8,2471.518,13.28,0.053,97.5
2023-07-01T04:13:03,42.805,6.029,0.043,0.013,0.001,102.0,104.0,102.0,13.4,1505.2,330.7,-0.8,1.8,2471.496,13.29,0.044,73.2
2023-07-01T04:16:03,42.805,6.029,0.037,-0.01,-0.013,103.0,105.0,101.0,13.3,1505.2,352.1,-0.7,1.8,2471.486,13.29,0.038,105.1
2023-07-01T04:19:03,42.805,6.029,0.042,0.026,0.002,103.0,105.0,101.0,13.3,1505.2,325.5,-0.8,1.8,2471.488,13.29,0.049,58.2
2023-07-01T04:22:03,42.805,6.029,0.056,-0.01,0.02,103.0,105.0,102.0,13.3,1505.2,328.5,-0.8,1.8,2471.476,13.29,0.056,100.1
2023-07-01T04:25:03,42.805,6.029,0.063,-0.017,0.005,102.0,104.0,102.0,13.4,1505.2,342.3,-0.8,1.8,2471.487,13.29,0.065,105.1
2023-07-01T04:28:03,42.805,6.029,0.058,-0.025,-0.021,102.0,104.0,101.0,13.4,1505.2,345.6,-0.8,1.8,2471.503,13.29,0.063,113.3
2023-07-01T04:31:03,42.805,6.029,0.09,0.001,0.023,102.0,105.0,101.0,13.4,1505.2,324.0,-0.8,1.9,2471.486,13.29,0.089,89.4
2023-07-01T04:34:03,42.805,6.029,0.048,-0.002,0.008,102.0,104.0,101.0,13.4,1505.2,335.2,-0.8,1.8,2471.477,13.29,0.048,92.4
2023-07-01T04:37:03,42.805,6.029,0.04,-0.022,-0.014,102.0,103.0,101.0,13.4,1505.2,338.2,-0.8,1.8,2471.476,13.29,0.045,118.8
2023-07-01T04:40:03,42.805,6.029,0.044,0.014,0.016,104.0,104.0,101.0,13.4,1505.2,323.6,-0.7,1.8,2471.477,13.29,0.046,72.4
2023-07-01T04:43:03,42.805,6.029,0.058,-0.009,-0.004,103.0,104.0,102.0,13.4,1505.2,324.5,-0.7,1.8,2471.472,13.29,0.058,98.8
2023-07-01T04:46:03,42.805,6.029,0.052,0.008,0.007,102.0,105.0,102.0,13.4,1505.2,331.9,-0.8,1.8,2471.481,13.29,0.052,81.3
2023-07-01T04:49:03,42.805,6.029,0.056,-0.04,0.023,102.0,105.0,101.0,13.4,1505.2,348.6,-0.7,1.8,2471.443,13.29,0.068,125.5
2023-07-01T04:52:03,42.805,6.029,0.074,-0.005,0.0,102.0,103.0,101.0,13.4,1505.2,321.1,-0.8,1.8,2471.49,13.29,0.074,93.9
2023-07-01T04:55:03,42.805,6.029,0.076,-0.005,0.001,103.0,105.0,100.0,13.4,1505.2,331.3,-0.8,1.9,2471.509,13.29,0.076,93.8
2023-07-01T04:58:03,42.805,6.029,0.026,-0.006,-0.022,102.0,104.0,102.0,13.4,1505.2,331.0,-0.8,1.8,2471.499,13.29,0.026,103.0
2023-07-01T05:04:03,42.805,6.029,0.06,0.008,-0.004,104.0,104.0,101.0,13.4,1505.2,323.1,-0.7,1.8,2471.523,13.28,0.06,82.4
2023-07-01T05:07:03,42.805,6.029,0.07,-0.015,0.015,102.0,104.0,102.0,13.4,1505.2,331.8,-0.7,1.8,2471.503,13.28,0.071,102.1
2023-07-01T05:10:03,42.805,6.029,0.045,-0.011,-0.021,103.0,104.0,100.0,13.4,1505.2,327.7,-0.8,1.8,2471.496,13.28,0.046,103.7
2023-07-01T05:13:03,42.805,6.029,0.044,-0.006,-0.003,102.0,105.0,101.0,13.4,1505.2,346.4,-0.8,1.8,2471.501,13.29,0.044,97.8
2023-07-01T05:16:03,42.805,6.029,0.047,-0.018,-0.029,102.0,104.0,100.0,13.3,1505.2,340.4,-0.8,1.8,2471.492,13.29,0.05,111.0
2023-07-01T05:19:03,42.805,6.029,0.053,-0.019,-0.012,102.0,103.0,102.0,13.4,1505.2,340.8,-0.8,1.8,2471.519,13.29,0.056,109.7
2023-07-01T05:22:03,42.805,6.029,0.071,-0.033,0.006,101.0,101.0,102.0,13.3,1505.2,338.6,-0.7,1.8,2471.48,13.29,0.078,114.9
2023-07-01T05:25:03,42.805,6.029,0.076,0.0,0.054,102.0,103.0,101.0,13.3,1505.2,329.0,-0.7,1.8,2471.475,13.29,0.075,90.0
2023-07-01T05:28:03,42.805,6.029,0.05,-0.037,0.031,103.0,105.0,101.0,13.4,1505.2,352.1,-0.8,1.8,2471.474,13.29,0.062,126.5
2023-07-01T05:31:03,42.805,6.029,0.054,-0.018,0.009,103.0,105.0,100.0,13.3,1505.2,327.8,-0.8,1.8,2471.491,13.29,0.056,108.4
2023-07-01T05:34:03,42.805,6.029,0.056,-0.015,0.011,102.0,103.0,101.0,13.3,1505.2,339.3,-0.8,1.8,2471.498,13.29,0.057,105.0
2023-07-01T05:37:03,42.805,6.029,0.054,-0.032,0.024,102.0,102.0,100.0,13.4,1505.2,344.2,-0.8,1.8,2471.48,13.29,0.062,120.7
2023-07-01T05:40:03,42.805,6.029,0.044,0.002,0.015,102.0,102.0,101.0,13.3,1505.2,329.3,-0.7,1.8,2471.456,13.29,0.044,87.4
2023-07-01T05:43:03,42.805,6.029,0.077,-0.044,0.014,101.0,103.0,101.0,13.4,1505.2,348.4,-0.8,1.8,2471.484,13.29,0.088,119.7
2023-07-01T05:46:03,42.805,6.029,0.087,-0.031,0.041,103.0,103.0,101.0,13.3,1505.2,337.5,-0.8,1.8,2471.469,13.29,0.092,109.6
2023-07-01T05:49:03,42.805,6.029,0.078,0.0,0.022,102.0,103.0,101.0,13.4,1505.2,325.8,-0.7,1.8,2471.456,13.29,0.077,90.0
2023-07-01T05:52:03,42.805,6.029,0.066,0.014,0.022,102.0,103.0,102.0,13.4,1505.2,319.7,-0.8,1.8,2471.455,13.29,0.067,78.0
2023-07-01T05:55:03,42.805,6.029,0.082,-0.029,0.003,103.0,103.0,102.0,13.4,1505.2,341.9,-0.7,1.8,2471.518,13.29,0.086,109.5
2023-07-01T05:58:03,42.805,6.029,0.062,-0.04,-0.017,103.0,102.0,101.0,13.3,1505.2,347.7,-0.8,1.8,2471.47,13.29,0.073,122.8
2023-07-01T06:01:03,42.805,6.029,0.068,0.002,0.007,103.0,102.0,102.0,13.4,1505.2,322.7,-0.8,1.8,2471.481,13.29,0.068,88.3
2023-07-01T06:04:03,42.805,6.029,0.075,-0.035,0.01,104.0,101.0,102.0,13.4,1505.2,341.5,-0.8,1.8,2471.476,13.29,0.082,115.0
2023-07-01T06:07:03,42.805,6.029,0.062,-0.06,-0.009,103.0,102.0,102.0,13.3,1505.2,347.4,-0.8,1.8,2471.459,13.29,0.086,134.1
2023-07-01T06:10:03,42.805,6.029,0.103,-0.04,-0.011,102.0,102.0,101.0,13.3,1505.2,328.8,-0.8,1.8,2471.487,13.29,0.11,111.2
2023-07-01T06:13:03,42.805,6.029,0.046,-0.045,-0.044,102.0,102.0,101.0,13.3,1505.2,344.0,-0.8,1.8,2471.492,13.29,0.064,134.4
2023-07-01T06:16:03,42.805,6.029,0.058,-0.038,-0.018,102.0,104.0,101.0,13.4,1505.2,340.4,-0.7,1.8,2471.46,13.29,0.069,123.2
2023-07-01T06:19:03,42.805,6.029,0.079,-0.037,-0.02,102.0,102.0,101.0,13.4,1505.2,333.9,-0.8,1.8,2471.488,13.29,0.087,115.1
2023-07-01T06:22:03,42.805,6.029,0.068,-0.032,-0.018,103.0,101.0,101.0,13.4,1505.2,350.1,-0.8,1.8,2471.473,13.29,0.075,115.2
2023-07-01T06:25:03,42.805,6.029,0.053,-0.03,-0.044,102.0,102.0,101.0,13.3,1505.2,324.2,-0.7,1.8,2471.498,13.29,0.06,119.5
2023-07-01T06:28:03,42.805,6.029,0.087,-0.042,-0.001,102.0,101.0,101.0,13.4,1505.2,339.8,-0.8,1.8,2471.458,13.29,0.096,115.8
2023-07-01T06:31:03,42.805,6.029,0.081,-0.04,0.0,103.0,101.0,101.0,13.4,1505.2,343.3,-0.8,1.8,2471.493,13.29,0.09,116.3
2023-07-01T06:34:03,42.805,6.029,0.055,-0.029,0.0,102.0,103.0,101.0,13.4,1505.2,336.6,-0.7,1.8,2471.451,13.29,0.062,117.8
2023-07-01T06:37:03,42.805,6.029,0.073,-0.009,0.014,102.0,101.0,101.0,13.4,1505.2,348.2,-0.8,1.8,2471.438,13.29,0.073,97.0
2023-07-01T06:40:03,42.805,6.029,0.064,-0.002,0.01,102.0,103.0,100.0,13.4,1505.2,322.7,-0.7,1.8,2471.444,13.29,0.064,91.8
2023-07-01T06:43:03,42.805,6.029,0.067,-0.012,-0.003,101.0,102.0,100.0,13.3,1505.2,330.2,-0.8,1.8,2471.433,13.29,0.068,100.2
2023-07-01T06:46:03,42.805,6.029,0.056,-0.024,-0.013,101.0,102.0,101.0,13.4,1505.2,340.4,-0.8,1.8,2471.469,13.29,0.06,113.2
2023-07-01T06:49:03,42.805,6.029,0.073,-0.026,-0.027,101.0,102.0,101.0,13.3,1505.2,329.4,-0.8,1.8,2471.427,13.29,0.077,109.6
2023-07-01T06:52:03,42.805,6.029,0.086,-0.077,-0.025,102.0,101.0,101.0,13.4,1505.2,348.4,-0.8,1.8,2471.456,13.29,0.115,131.8
2023-07-01T06:55:03,42.805,6.029,0.057,-0.035,-0.021,101.0,101.0,101.0,13.4,1505.2,339.3,-0.8,1.8,2471.433,13.29,0.066,121.6
2023-07-01T06:58:03,42.805,6.029,0.09,-0.042,-0.006,102.0,101.0,101.0,13.3,1505.2,341.1,-0.8,1.8,2471.431,13.29,0.099,115.0
2023-07-01T07:04:03,42.805,6.029,0.084,-0.027,-0.033,102.0,101.0,101.0,13.3,1505.2,325.7,-0.8,1.8,2471.506,13.28,0.088,107.8
2023-07-01T07:07:03,42.805,6.029,0.065,-0.026,-0.028,103.0,100.0,101.0,13.4,1505.2,326.5,-0.8,1.8,2471.447,13.28,0.07,111.8
2023-07-01T07:10:03,42.805,6.029,0.063,-0.075,-0.036,103.0,101.0,101.0,13.4,1505.2,351.0,-0.8,1.8,2471.445,13.28,0.097,140.0
2023-07-01T07:13:03,42.805,6.029,0.09,-0.002,0.0,102.0,102.0,101.0,13.4,1505.2,324.6,-0.8,1.8,2471.471,13.28,0.09,91.3
2023-07-01T07:16:03,42.805,6.029,0.073,-0.04,0.015,100.0,102.0,102.0,13.3,1505.2,344.0,-0.8,1.8,2471.475,13.29,0.083,118.7
2023-07-01T07:19:03,42.805,6.029,0.078,-0.057,-0.035,102.0,102.0,100.0,13.3,1505.2,343.9,-0.8,1.8,2471.466,13.29,0.096,126.2
2023-07-01T07:22:03,42.805,6.029,0.074,-0.022,0.052,101.0,102.0,101.0,13.3,1505.2,333.9,-0.8,1.8,2471.436,13.29,0.077,106.6
2023-07-01T07:25:03,42.805,6.029,0.062,-0.031,-0.016,102.0,101.0,101.0,13.4,1505.2,344.7,-0.8,1.8,2471.471,13.29,0.069,116.6
2023-07-01T07:28:03,42.805,6.029,0.086,-0.003,0.026,102.0,102.0,100.0,13.3,1505.2,324.5,-0.8,1.8,2471.444,13.29,0.086,92.0
2023-07-01T07:31:03,42.805,6.029,0.059,-0.009,-0.025,101.0,103.0,101.0,13.3,1505.2,320.1,-0.7,1.8,2471.472,13.29,0.059,98.7
2023-07-01T07:34:03,42.805,6.029,0.065,-0.036,-0.025,102.0,101.0,100.0,13.3,1505.2,338.0,-0.7,1.8,2471.445,13.29,0.074,119.0
2023-07-01T07:37:03,42.805,6.029,0.108,-0.041,-0.044,102.0,101.0,101.0,13.3,1505.2,324.0,-0.8,1.8,2471.43,13.29,0.115,110.8
2023-07-01T07:40:03,42.805,6.029,0.061,-0.027,-0.018,101.0,102.0,101.0,13.3,1505.2,325.6,-0.7,1.8,2471.425,13.29,0.066,113.9
2023-07-01T07:43:03,42.805,6.029,0.09,-0.055,-0.042,102.0,101.0,100.0,13.3,1505.2,334.5,-0.8,1.8,2471.386,13.29,0.105,121.4
2023-07-01T07:46:03,42.805,6.029,0.091,-0.025,0.001,102.0,101.0,101.0,13.3,1505.2,342.5,-0.8,1.8,2471.41,13.29,0.094,105.4
2023-07-01T07:49:03,42.805,6.029,0.09,-0.033,-0.028,99.0,101.0,101.0,13.3,1505.2,333.4,-0.8,1.8,2471.403,13.29,0.095,110.1
2023-07-01T07:52:03,42.805,6.029,0.092,-0.039,-0.009,102.0,101.0,100.0,13.4,1505.2,323.9,-0.8,1.8,2471.42,13.29,0.099,113.0
2023-07-01T07:55:03,42.805,6.029,0.053,-0.055,-0.006,102.0,101.0,101.0,13.4,1505.2,351.4,-0.7,1.8,2471.404,13.29,0.076,136.1
2023-07-01T07:58:03,42.805,6.029,0.073,-0.028,-0.021,101.0,101.0,101.0,13.3,1505.2,333.8,-0.8,1.8,2471.387,13.29,0.078,111.0
2023-07-01T08:04:03,42.805,6.029,0.069,-0.023,0.04,101.0,101.0,101.0,13.3,1505.2,349.1,-0.8,1.8,2471.415,13.28,0.072,108.4
2023-07-01T08:07:03,42.805,6.029,0.095,-0.045,-0.023,102.0,101.0,101.0,13.3,1505.2,336.1,-0.8,1.8,2471.411,13.28,0.105,115.3
2023-07-01T08:10:03,42.805,6.029,0.044,-0.051,0.006,100.0,102.0,102.0,13.4,1505.2,352.1,-0.8,1.8,2471.447,13.28,0.067,139.2
2023-07-01T08:13:03,42.805,6.029,0.066,-0.006,-0.044,100.0,102.0,101.0,13.4,1505.2,320.9,-0.7,1.8,2471.457,13.28,0.066,95.2
2023-07-01T08:16:03,42.805,6.029,0.094,-0.043,0.022,101.0,102.0,100.0,13.3,1505.2,335.6,-0.8,1.8,2471.414,13.28,0.103,114.6
2023-07-01T08:19:03,42.805,6.029,0.079,-0.046,0.013,102.0,100.0,100.0,13.3,1505.2,350.3,-0.8,1.8,2471.42,13.29,0.091,120.2
2023-07-01T08:22:03,42.805,6.029,0.092,-0.014,0.015,102.0,101.0,101.0,13.3,1505.2,328.1,-0.8,1.8,2471.423,13.29,0.093,98.7
2023-07-01T08:25:03,42.805,6.029,0.065,0.001,0.031,102.0,101.0,100.0,13.3,1505.2,327.7,-0.7,1.8,2471.384,13.29,0.065,89.1
2023-07-01T08:28:03,42.805,6.029,0.082,-0.042,-0.015,101.0,101.0,101.0,13.3,1505.2,336.6,-0.8,1.8,2471.396,13.29,0.092,117.1
2023-07-01T08:31:03,42.805,6.029,0.084,-0.008,-0.002,101.0,101.0,101.0,13.3,1505.2,328.3,-0.8,1.8,2471.432,13.29,0.084,95.4
2023-07-01T08:34:03,42.805,6.029,0.093,-0.056,-0.003,101.0,101.0,101.0,13.4,1505.2,349.3,-0.7,1.8,2471.389,13.29,0.108,121.1
2023-07-01T08:37:03,42.805,6.029,0.053,-0.042,0.001,100.0,102.0,102.0,13.3,1505.2,348.0,-0.7,1.8,2471.391,13.29,0.067,128.4
2023-07-01T08:40:03,42.805,6.029,0.065,-0.031,-0.046,102.0,101.0,100.0,13.3,1505.2,327.0,-0.8,1.8,2471.375,13.29,0.072,115.5
2023-07-01T08:43:03,42.805,6.029,0.052,-0.033,-0.021,101.0,101.0,100.0,13.4,1505.2,338.8,-0.8,1.8,2471.382,13.29,0.061,122.4
2023-07-01T08:46:03,42.805,6.029,0.093,-0.03,0.046,101.0,102.0,100.0,13.4,1505.2,332.9,-0.8,1.8,2471.383,13.29,0.097,107.9
2023-07-01T08:49:03,42.805,6.029,0.045,-0.06,-0.032,101.0,101.0,101.0,13.4,1505.2,331.0,-0.8,1.8,2471.389,13.29,0.074,143.1
2023-07-01T08:52:03,42.805,6.029,0.093,-0.023,0.001,101.0,101.0,101.0,13.3,1505.2,330.5,-0.8,1.8,2471.358,13.29,0.095,103.9
2023-07-01T08:55:03,42.805,6.029,0.097,-0.027,-0.008,100.0,103.0,101.0,13.4,1505.2,323.7,-0.8,1.8,2471.366,13.29,0.1,105.6
2023-07-01T08:58:03,42.805,6.029,0.095,-0.04,-0.009,102.0,100.0,100.0,13.4,1505.2,332.9,-0.8,1.8,2471.37,13.29,0.103,112.8
2023-07-01T09:04:03,42.805,6.029,0.054,-0.003,0.014,101.0,102.0,101.0,13.4,1505.2,330.5,-0.8,1.8,2471.4,13.28,0.054,93.2
2023-07-01T09:07:03,42.805,6.029,0.092,-0.017,0.031,102.0,102.0,101.0,13.4,1505.2,329.4,-0.8,1.8,2471.434,13.28,0.093,100.5
2023-07-01T09:10:03,42.805,6.029,0.078,-0.034,0.025,102.0,101.0,101.0,13.4,1505.2,348.4,-0.8,1.8,2471.411,13.28,0.085,113.5
2023-07-01T09:13:03,42.805,6.029,0.066,-0.017,-0.006,101.0,101.0,100.0,13.4,1505.2,326.3,-0.7,1.8,2471.411,13.28,0.068,104.4
2023-07-01T09:16:03,42.805,6.029,0.093,-0.002,0.036,100.0,101.0,101.0,13.4,1505.2,325.0,-0.7,1.8,2471.375,13.28,0.093,91.2
2023-07-01T09:19:03,42.805,6.029,0.076,-0.01,-0.004,100.0,103.0,101.0,13.4,1505.2,328.1,-0.7,1.8,2471.361,13.29,0.076,97.5
2023-07-01T09:22:03,42.805,6.029,0.075,-0.009,0.011,102.0,101.0,100.0,13.4,1505.2,337.2,-0.8,1.8,2471.353,13.29,0.075,96.8
2023-07-01T09:25:03,42.805,6.029,0.058,-0.049,0.004,101.0,101.0,101.0,13.4,1505.2,348.2,-0.7,1.8,2471.348,13.29,0.075,130.2
2023-07-01T09:28:03,42.805,6.029,0.089,-0.048,-0.061,102.0,101.0,101.0,13.3,1505.2,330.5,-0.8,1.8,2471.374,13.29,0.101,118.3
2023-07-01T09:31:03,42.805,6.029,0.084,-0.027,0.02,101.0,101.0,101.0,13.4,1505.2,333.4,-0.8,1.8,2471.357,13.29,0.088,107.8
2023-07-01T09:34:03,42.805,6.029,0.056,-0.037,-0.016,101.0,101.0,101.0,13.4,1505.2,347.7,-0.8,1.9,2471.352,13.29,0.067,123.5
2023-07-01T09:37:03,42.805,6.029,0.056,-0.058,-0.022,102.0,102.0,101.0,13.4,1505.2,346.2,-0.8,1.8,2471.3,13.29,0.08,136.0
2023-07-01T09:40:03,42.805,6.029,0.073,-0.021,-0.01,102.0,101.0,101.0,13.4,1505.2,327.0,-0.8,1.8,2471.349,13.29,0.075,106.0
2023-07-01T09:43:03,42.805,6.029,0.045,-0.028,-0.043,101.0,101.0,101.0,13.4,1505.2,331.2,-0.8,1.8,2471.345,13.29,0.053,121.9
2023-07-01T09:46:03,42.805,6.029,0.07,-0.034,0.012,102.0,101.0,100.0,13.4,1505.2,349.9,-0.7,1.8,2471.339,13.29,0.077,115.9
2023-07-01T09:49:03,42.805,6.029,0.066,-0.01,-0.025,102.0,102.0,100.0,13.4,1505.2,329.0,-0.8,1.8,2471.341,13.29,0.066,98.6
2023-07-01T09:52:03,42.805,6.029,0.078,-0.032,0.004,101.0,102.0,101.0,13.4,1505.2,330.2,-0.8,1.8,2471.349,13.29,0.084,112.3